OBJECT D, 44882

Orbit data source: Space-Track

You're viewing an Uncataloged Satellite

Recently launched and/or uncataloged satellites may have evolving metadata. Metadata may include but not limited to: Owner, Maufacturer, Bus, Motor, and Mission.

OBJECT D, 44882 is a satellite in SSO that was launched on Fri, 20 Dec 2019 UTC via a CHANG ZHENG 4B launch vehicle from the Taiyaun Space Center, China (TSC). Unknown objects in Earth's orbit typically refer to objects detected orbiting the Earth but have not yet been identified or cataloged. These objects could be anything from previously untracked satellites, spent rocket stages, debris from satellite collisions, or even natural meteoroids temporarily captured by Earth's gravity.

Loading next visibility...
Identifier
44882, 2019-093D
Orbit
SSO
Country
Flag of TBDTBD
Related business
None
Manufacturer
Unknown
Mission
Operational Commercial Communications
Bus & Motor
Unknown
Mass
Unknown
Launch date (UTC)
2019-12-20 (6 years ago)
Launch vehicle
CHANG ZHENG 4B
Launch site
Taiyaun Space Center, China (TSC)
Object type
Unknown
Shape & HBR
Box, Unknown HBR
Radar Cross Section
0.195 m², Large (>1 m²)

Expand to show TLE details & history
Last TLE update: 8 hours ago

TLE from 8 hours ago
0 OBJECT D
1 44882U 19093D   26104.81621646  .00004136  00000-0  29997-3 0  9998
2 44882  97.7893 199.0512 0013395 234.6326 125.3649 15.04425959343087
Epoch: 2026-04-14T19:35Z
TLE epoch observation values (Epoch: 2026-04-14T19:35:21.102Z)
Latitude
0.00005°
Longitude
62.22623°
Altitude
561.709 km
Speed
7.578 km/s
True Right ascension
13h 16m 12s
True Declination
0° 00' 00"
Sunlit
Object was in full shadow at epoch
Visualization orbit readout
Latitude
Unknown
Longitude
Unknown
Altitude
Unknown
Speed
Unknown
Apparent Right ascension
Unknown
Apparent Declination
Unknown
Sunlit
N/A
Visualization observer readout
Local Sidereal Time
09:58:44
Azimuth
Unknown
Elevation
Unknown
Doppler factor
Unknown
Orbital elements
Apogee altitude
559.552 km
Perigee altitude
540.991 km
Semi-major axis
6,928.409 km
Eccentricity
0.00134
Inclination
97.7893°
RAAN
199.0512°
Arg. of periapsis
234.6326°
True anomaly
125.48995°
Mean anomaly
125.3649°
Eccentric anomaly
125.42744°
Mean motion
3.76351 °/min
Orbital period
95.66 mins
BSTAR
0.00029997
Loading maneuver chart data...
Computing Atmospheric mass density...
Loading historical data...
Loading historical data...
Loading historical data...
Loading historical data...
Loading historical data...
Loading historical data...
Loading historical data...

Documentation

Showing up to 5 results
|